Location: *
(38.4303°S, 157.0822°W)
Time: 15:18:18
(UTC+00:00)

Cosmos 1844 Rocket - Pass Details

Date: 21 May 2024
Orbit: 825 x 842 km, 71.0° (Epoch: 22 June)

Event Time Altitude Azimuth Distance (km) Brightness Sun altitude
Exits shadow 14:50:48 15° 173° (S) 2,143 4.8 -30.6°
Maximum altitude 14:54:30 28° 122° (ESE) 1,543 4.5 -29.9°
Drops below altitude 10° 14:59:20 10° 64° (ENE) 2,469 5.9 -29.0°
Sets 15:02:06 0° 52° (NE) 3,394 6.7 -28.4°
